Prescott, AZ

7:57 AM MST on January 21, 2018 (GMT -0700)
Love

Weather History for KPRC - August, 2014

Change the Weather History Date:

Sunday, August 3, 2014

  Actual Average Record
Temperature  
Mean Temperature 70 °F 75 °F  
Max Temperature 78 °F 88 °F 99 °F (1995)
Min Temperature 61 °F 62 °F 53 °F (1990)
Degree Days  
Heating Degree Days 0    
Month to date heating degree days 0  
Since 1 July heating degree days 0  
Cooling Degree Days 5    
Month to date cooling degree days 26  
Year to date cooling degree days 706  
Growing Degree Days 18 (Base 50)    
Moisture  
Dew Point 59 °F    
Average Humidity 73    
Maximum Humidity 93    
Minimum Humidity 54    
Precipitation  
Precipitation 0.14 in 0.09 in 1.43 in (1954)
Month to date precipitation 0.36 0.26  
Year to date precipitation 3.16 7.30  
Sea Level Pressure  
Sea Level Pressure 30.01 in    
Wind  
Wind Speed 5 mph (ESE)    
Max Wind Speed 17 mph    
Max Gust Speed 25 mph    
Visibility 10 miles    
Events Rain , Thunderstorm    
T = Trace of Precipitation, MM = Missing Value Source: NWS Daily Summary

Daily Weather History Graph

Daily Weather History Graph

Search for Another Location

Airport or City:

Trip Planner

Search our weather history database for the weather conditions in past years. The results will help you decide how hot, cold, wet, or windy it might be!

Date:

Astronomy

Aug. 03, 2014 Rise Set
Actual Time 5:41 AM MST 7:29 PM MST
Civil Twilight 5:13 AM MST 7:57 PM MST
Nautical Twilight 4:40 AM MST 8:30 PM MST
Astronomical Twilight 4:05 AM MST 9:05 PM MST
Moon 12:46 PM MST (8/3) 11:49 PM MST (8/3)
Length of Visible Light 14h 43m
Length of Day
13h 48m
Waxing Crescent, 48% of the Moon is Illuminated
Aug 3
Waxing Crescent
Aug 3
First Quarter
Aug 10
Full
Aug 17
Last Quarter
Aug 25
New

Hourly Weather History & Observations

Time (MST) Temp. Dew Point Humidity Pressure Visibility Wind Dir Wind Speed Gust Speed Precip Events Conditions
1:53 AM 61.0 °F 57.9 °F 90% 29.95 in 10.0 mi Calm Calm - 0.00 in Rain Light Rain
2:53 AM 62.1 °F 57.9 °F 86% 29.96 in 10.0 mi SW 3.5 mph - 0.01 in   Mostly Cloudy
3:53 AM 63.0 °F 57.9 °F 84% 29.97 in 10.0 mi SW 3.5 mph - N/A   Overcast
4:53 AM 63.0 °F 59.0 °F 87% 29.98 in 10.0 mi Calm Calm - N/A   Overcast
5:44 AM 63.0 °F 59.0 °F 87% 30.20 in 10.0 mi ENE 3.5 mph - 0.00 in   Overcast
5:53 AM 63.0 °F 60.1 °F 90% 30.00 in 10.0 mi Calm Calm - 0.00 in   Overcast
6:53 AM 63.0 °F 60.1 °F 90% 30.00 in 8.0 mi Calm Calm - 0.05 in   Overcast
7:53 AM 64.0 °F 60.1 °F 87% 30.01 in 10.0 mi ESE 6.9 mph - N/A   Mostly Cloudy
8:53 AM 68.0 °F 61.0 °F 78% 30.01 in 10.0 mi ESE 6.9 mph - N/A   Mostly Cloudy
9:28 AM 70.0 °F 59.0 °F 68% 30.21 in 10.0 mi SE 6.9 mph - N/A   Mostly Cloudy
9:53 AM 69.1 °F 60.1 °F 73% 30.00 in 10.0 mi Calm Calm - N/A   Mostly Cloudy
10:14 AM 71.1 °F 60.1 °F 68% 30.21 in 10.0 mi ESE 4.6 mph - N/A   Partly Cloudy
10:53 AM 75.0 °F 60.1 °F 60% 29.98 in 10.0 mi ESE 6.9 mph - N/A   Mostly Cloudy
11:53 AM 73.0 °F 61.0 °F 66% 29.99 in 10.0 mi NNE 9.2 mph - N/A   Mostly Cloudy
12:53 PM 75.0 °F 59.0 °F 57% 29.97 in 10.0 mi NNW 9.2 mph - N/A   Mostly Cloudy
1:16 PM 75.9 °F 59.0 °F 56% 30.18 in 10.0 mi North 9.2 mph - N/A Thunderstorm Thunderstorm
1:53 PM 72.0 °F 57.0 °F 59% 29.96 in 10.0 mi NE 11.5 mph - N/A   Mostly Cloudy
2:53 PM 75.9 °F 57.0 °F 52% 29.94 in 10.0 mi East 10.4 mph - N/A   Clear
3:00 PM 75.9 °F 55.9 °F 50% 30.15 in 10.0 mi ESE 9.2 mph 19.6 mph N/A   Mostly Cloudy
3:53 PM 72.0 °F 57.9 °F 61% 29.91 in 10.0 mi ESE 10.4 mph - 0.00 in Rain Light Rain
4:53 PM 72.0 °F 62.1 °F 71% 29.89 in 10.0 mi East 5.8 mph - 0.04 in Rain Light Rain
5:53 PM 75.9 °F 60.1 °F 58% 29.88 in 10.0 mi SE 8.1 mph - 0.00 in   Mostly Cloudy
7:53 PM 68.0 °F 60.1 °F 76% 29.95 in 10.0 mi South 3.5 mph - 0.01 in Thunderstorm Thunderstorm
8:00 PM 68.0 °F 61.0 °F 78% 30.15 in 10.0 mi South 3.5 mph - N/A   Mostly Cloudy
8:53 PM 66.9 °F 59.0 °F 76% 29.96 in 5.0 mi North - - 0.01 in Rain , Thunderstorm Thunderstorms and Rain
9:53 PM 64.9 °F 57.9 °F 78% 29.98 in 10.0 mi SE 3.5 mph - 0.01 in   Partly Cloudy
11:53 PM 64.9 °F 57.0 °F 75% 29.96 in 10.0 mi ESE 3.5 mph - N/A   Clear